| time (UTC) | temp F | wind direction | speed MPH | gust MPH | rain 1hr in | rain 24hr in | rain mn in | humidity % | barometer mb |
| 20260505210528 | 83 | 245 | 8.0 | 20.0 | 0.00 | 0.00 | 0.00 | 27 | 1007.8 |
| 20260505210356 | 83 | 246 | 10.0 | 14.0 | 0.00 | 0.00 | 0.00 | 27 | 1007.6 |
| 20260505205853 | 84 | 240 | 7.0 | 11.0 | 0.00 | 0.00 | 0.00 | 27 | 1007.7 |
| 20260505205520 | 84 | 239 | 9.0 | 20.0 | 0.00 | 0.00 | 0.00 | 27 | 1007.9 |
| 20260505205351 | 84 | 228 | 12.0 | 18.0 | 0.00 | 0.00 | 0.00 | 27 | 1007.8 |
| 20260505204848 | 84 | 246 | 8.0 | 13.0 | 0.00 | 0.00 | 0.00 | 27 | 1007.4 |
| 20260505204528 | 84 | 247 | 7.0 | 22.0 | 0.00 | 0.00 | 0.00 | 28 | 1007.9 |
| 20260505204346 | 84 | 209 | 5.0 | 6.0 | 0.00 | 0.00 | 0.00 | 28 | 1007.6 |
| 20260505203843 | 83 | 216 | 4.0 | 8.0 | 0.00 | 0.00 | 0.00 | 27 | 1007.6 |
| 20260505203520 | 83 | 247 | 6.0 | 13.0 | 0.00 | 0.00 | 0.00 | 28 | 1008.0 |
| 20260505203339 | 83 | 250 | 5.0 | 7.0 | 0.00 | 0.00 | 0.00 | 29 | 1007.7 |
| 20260505202836 | 84 | 228 | 13.0 | 20.0 | 0.00 | 0.00 | 0.00 | 28 | 1008.1 |
| 20260505202528 | 83 | 230 | 7.0 | 22.0 | 0.00 | 0.00 | 0.00 | 28 | 1008.1 |
| 20260505202331 | 83 | 260 | 8.0 | 10.0 | 0.00 | 0.00 | 0.00 | 28 | 1007.9 |
| 20260505201828 | 84 | 238 | 9.0 | 20.0 | 0.00 | 0.00 | 0.00 | 28 | 1007.8 |
| 20260505201520 | 84 | 240 | 7.0 | 21.0 | 0.00 | 0.00 | 0.00 | 27 | 1008.1 |
| 20260505201326 | 84 | 225 | 4.0 | 7.0 | 0.00 | 0.00 | 0.00 | 27 | 1007.8 |
| 20260505200824 | 84 | 237 | 5.0 | 8.0 | 0.00 | 0.00 | 0.00 | 27 | 1007.9 |
| 20260505200528 | 83 | 238 | 6.0 | 17.0 | 0.00 | 0.00 | 0.00 | 29 | 1008.0 |
| 20260505200320 | 83 | 250 | 6.0 | 9.0 | 0.00 | 0.00 | 0.00 | 29 | 1007.7 |
| 20260505195816 | 84 | 233 | 15.0 | 17.0 | 0.00 | 0.00 | 0.00 | 29 | 1007.9 |
| 20260505195520 | 84 | 236 | 6.0 | 20.0 | 0.00 | 0.00 | 0.00 | 29 | 1008.0 |
| 20260505195314 | 84 | 259 | 3.0 | 6.0 | 0.00 | 0.00 | 0.00 | 30 | 1007.9 |
| 20260505194811 | 83 | 218 | 7.0 | 17.0 | 0.00 | 0.00 | 0.00 | 30 | 1007.8 |
| 20260505194528 | 84 | 247 | 8.0 | 22.0 | 0.00 | 0.00 | 0.00 | 30 | 1008.2 |
| 20260505194308 | 84 | 239 | 11.0 | 14.0 | 0.00 | 0.00 | 0.00 | 30 | 1007.9 |
| 20260505193803 | 84 | 223 | 5.0 | 7.0 | 0.00 | 0.00 | 0.00 | 30 | 1008.0 |
| 20260505193520 | 84 | 219 | 8.0 | 20.0 | 0.00 | 0.00 | 0.00 | 30 | 1008.4 |
| 20260505193301 | 84 | 208 | 9.0 | 16.0 | 0.00 | 0.00 | 0.00 | 30 | 1008.2 |
| 20260505192759 | 84 | 222 | 9.0 | 10.0 | 0.00 | 0.00 | 0.00 | 29 | 1008.4 |
| 20260505192528 | 84 | 221 | 8.0 | 22.0 | 0.00 | 0.00 | 0.00 | 29 | 1008.5 |
| 20260505192256 | 84 | 232 | 4.0 | 7.0 | 0.00 | 0.00 | 0.00 | 30 | 1008.3 |
| 20260505191754 | 84 | 200 | 7.0 | 11.0 | 0.00 | 0.00 | 0.00 | 30 | 1008.2 |
| 20260505191520 | 84 | 250 | 8.0 | 17.0 | 0.00 | 0.00 | 0.00 | 29 | 1008.7 |
| 20260505191252 | 84 | 245 | 13.0 | 16.0 | 0.00 | 0.00 | 0.00 | 29 | 1008.4 |
| 20260505190748 | 84 | 138 | 9.0 | 15.0 | 0.00 | 0.00 | 0.00 | 29 | 1008.6 |
| 20260505190528 | 83 | 237 | 8.0 | 15.0 | 0.00 | 0.00 | 0.00 | 30 | 1008.7 |
| 20260505190243 | 84 | 259 | 9.0 | 13.0 | 0.00 | 0.00 | 0.00 | 30 | 1008.6 |
| 20260505185740 | 83 | 264 | 4.0 | 6.0 | 0.00 | 0.00 | 0.00 | 31 | 1008.6 |
| 20260505185520 | 84 | 236 | 7.0 | 20.0 | 0.00 | 0.00 | 0.00 | 30 | 1008.9 |
| 20260505185237 | 84 | 23 | 8.0 | 11.0 | 0.00 | 0.00 | 0.00 | 30 | 1008.5 |
| 20260505184733 | 83 | 218 | 12.0 | 22.0 | 0.00 | 0.00 | 0.00 | 30 | 1008.9 |
| 20260505184548 | 83 | 210 | 9.0 | 20.0 | 0.00 | 0.00 | 0.00 | 31 | 1009.2 |
| 20260505184230 | 84 | 228 | 9.0 | 15.0 | 0.00 | 0.00 | 0.00 | 32 | 1008.8 |
| 20260505183727 | 83 | 212 | 5.0 | 7.0 | 0.00 | 0.00 | 0.00 | 32 | 1009.0 |
| 20260505183521 | 83 | 225 | 10.0 | 27.0 | 0.00 | 0.00 | 0.00 | 31 | 1009.2 |
| 20260505183224 | 83 | 227 | 11.0 | 15.0 | 0.00 | 0.00 | 0.00 | 30 | 1008.8 |
| 20260505182721 | 83 | 216 | 13.0 | 22.0 | 0.00 | 0.00 | 0.00 | 32 | 1009.0 |
| 20260505182528 | 83 | 220 | 7.0 | 14.0 | 0.00 | 0.00 | 0.00 | 33 | 1009.1 |
| 20260505182218 | 83 | 239 | 9.0 | 14.0 | 0.00 | 0.00 | 0.00 | 33 | 1008.9 |
| 20260505181714 | 83 | 241 | 6.0 | 10.0 | 0.00 | 0.00 | 0.00 | 34 | 1009.2 |
| 20260505181521 | 83 | 243 | 5.0 | 10.0 | 0.00 | 0.00 | 0.00 | 34 | 1009.2 |
| 20260505181212 | 83 | 162 | 4.0 | 6.0 | 0.00 | 0.00 | 0.00 | 35 | 1009.0 |
| 20260505180708 | 83 | 246 | 6.0 | 10.0 | 0.00 | 0.00 | 0.00 | 33 | 1009.0 |
| 20260505180528 | 84 | 245 | 5.0 | 13.0 | 0.00 | 0.00 | 0.00 | 35 | 1009.3 |
| 20260505180205 | 84 | 214 | 6.0 | 9.0 | 0.00 | 0.00 | 0.00 | 36 | 1009.0 |
| 20260505175701 | 83 | 207 | 5.0 | 6.0 | 0.00 | 0.00 | 0.00 | 36 | 1009.1 |
| 20260505175520 | 82 | 237 | 7.0 | 15.0 | 0.00 | 0.00 | 0.00 | 36 | 1009.5 |
| 20260505175157 | 82 | 243 | 7.0 | 9.0 | 0.00 | 0.00 | 0.00 | 35 | 1009.2 |
| 20260505174654 | 83 | 213 | 1.0 | 1.0 | 0.00 | 0.00 | 0.00 | 36 | 1009.1 |
| 20260505174528 | 82 | 248 | 7.0 | 21.0 | 0.00 | 0.00 | 0.00 | 36 | 1009.5 |
| 20260505174150 | 82 | 251 | 5.0 | 8.0 | 0.00 | 0.00 | 0.00 | 36 | 1009.2 |
| 20260505173647 | 82 | 243 | 11.0 | 16.0 | 0.00 | 0.00 | 0.00 | 36 | 1009.3 |
| 20260505173520 | 82 | 237 | 6.0 | 17.0 | 0.00 | 0.00 | 0.00 | 37 | 1009.6 |
| 20260505173144 | 82 | 227 | 13.0 | 17.0 | 0.00 | 0.00 | 0.00 | 37 | 1009.5 |
| 20260505172641 | 81 | 261 | 3.0 | 6.0 | 0.00 | 0.00 | 0.00 | 38 | 1009.6 |
| 20260505172528 | 81 | 232 | 6.0 | 16.0 | 0.00 | 0.00 | 0.00 | 38 | 1010.0 |
| 20260505172137 | 81 | 257 | 9.0 | 14.0 | 0.00 | 0.00 | 0.00 | 39 | 1009.7 |
| 20260505171632 | 81 | 198 | 5.0 | 7.0 | 0.00 | 0.00 | 0.00 | 38 | 1009.6 |
| 20260505171532 | 81 | 254 | 5.0 | 9.0 | 0.00 | 0.00 | 0.00 | 39 | 1009.9 |
| 20260505171129 | 81 | 246 | 6.0 | 8.0 | 0.00 | 0.00 | 0.00 | 38 | 1009.7 |
| 20260505170627 | 81 | 239 | 2.0 | 2.0 | 0.00 | 0.00 | 0.00 | 39 | 1009.7 |
| 20260505170529 | 81 | 234 | 4.0 | 10.0 | 0.00 | 0.00 | 0.00 | 39 | 1010.0 |
| 20260505170123 | 80 | 219 | 5.0 | 8.0 | 0.00 | 0.00 | 0.00 | 39 | 1009.8 |
| 20260505165618 | 80 | 263 | 7.0 | 9.0 | 0.00 | 0.00 | 0.00 | 40 | 1009.9 |
| 20260505165520 | 80 | 241 | 6.0 | 13.0 | 0.00 | 0.00 | 0.00 | 41 | 1010.2 |
| 20260505165114 | 80 | 203 | 5.0 | 6.0 | 0.00 | 0.00 | 0.00 | 41 | 1010.0 |
| 20260505164609 | 80 | 248 | 4.0 | 6.0 | 0.00 | 0.00 | 0.00 | 41 | 1010.0 |
| 20260505164529 | 79 | 245 | 6.0 | 13.0 | 0.00 | 0.00 | 0.00 | 41 | 1010.4 |
| 20260505164108 | 80 | 356 | 6.0 | 7.0 | 0.00 | 0.00 | 0.00 | 41 | 1010.2 |
| 20260505163606 | 80 | 243 | 6.0 | 8.0 | 0.00 | 0.00 | 0.00 | 40 | 1010.3 |
| 20260505163521 | 79 | 256 | 3.0 | 9.0 | 0.00 | 0.00 | 0.00 | 41 | 1010.5 |
| 20260505163103 | 79 | 237 | 4.0 | 5.0 | 0.00 | 0.00 | 0.00 | 42 | 1010.1 |
| 20260505162600 | 80 | 260 | 7.0 | 11.0 | 0.00 | 0.00 | 0.00 | 41 | 1010.4 |
| 20260505162529 | 80 | 265 | 4.0 | 11.0 | 0.00 | 0.00 | 0.00 | 41 | 1010.7 |
| 20260505162058 | 79 | 272 | 3.0 | 3.0 | 0.00 | 0.00 | 0.00 | 41 | 1010.5 |
| 20260505161601 | 78 | 224 | 6.0 | 14.0 | 0.00 | 0.00 | 0.00 | 43 | 1010.8 |
| 20260505161554 | 78 | 207 | 8.0 | 10.0 | 0.00 | 0.00 | 0.00 | 43 | 1010.3 |
| 20260505161052 | 79 | 222 | 10.0 | 11.0 | 0.00 | 0.00 | 0.00 | 42 | 1010.6 |
| 20260505160550 | 78 | 222 | 2.0 | 3.0 | 0.00 | 0.00 | 0.00 | 43 | 1010.6 |
| 20260505153026 | 76 | 235 | 3.0 | 5.0 | 0.00 | 0.00 | 0.00 | 47 | 1011.1 |
| 20260505152529 | 75 | 240 | 5.0 | 11.0 | 0.00 | 0.00 | 0.00 | 47 | 1011.4 |
| 20260505152523 | 75 | 219 | 5.0 | 6.0 | 0.00 | 0.00 | 0.00 | 47 | 1011.2 |
| 20260505152019 | 75 | 229 | 3.0 | 3.0 | 0.00 | 0.00 | 0.00 | 47 | 1011.2 |
| 20260505151541 | 75 | 237 | 4.0 | 10.0 | 0.00 | 0.00 | 0.00 | 47 | 1011.4 |
| 20260505151514 | 75 | 222 | 5.0 | 7.0 | 0.00 | 0.00 | 0.00 | 47 | 1011.1 |
| 20260505151012 | 74 | 232 | 4.0 | 6.0 | 0.00 | 0.00 | 0.00 | 48 | 1011.1 |
| 20260505150529 | 74 | 231 | 6.0 | 13.0 | 0.00 | 0.00 | 0.00 | 48 | 1011.5 |
| 20260505150508 | 74 | 238 | 8.0 | 10.0 | 0.00 | 0.00 | 0.00 | 48 | 1011.3 |
| 20260505140529 | 70 | 229 | 5.0 | 11.0 | 0.00 | 0.00 | 0.00 | 55 | 1011.9 |
| 20260505140433 | 70 | 201 | 8.0 | 10.0 | 0.00 | 0.00 | 0.00 | 54 | 1011.5 |
| 20260505124846 | 65 | 241 | 2.0 | 2.0 | 0.00 | 0.00 | 0.00 | 70 | 1011.4 |
| 20260505124529 | 64 | 245 | 2.0 | 3.0 | 0.00 | 0.00 | 0.00 | 71 | 1011.7 |
| 20260505124343 | 64 | 246 | 1.0 | 2.0 | 0.00 | 0.00 | 0.00 | 71 | 1011.3 |
| 20260505123839 | 64 | 241 | 1.0 | 1.0 | 0.00 | 0.00 | 0.00 | 72 | 1011.3 |
| 20260505123601 | 63 | 239 | 1.0 | 5.0 | 0.00 | 0.00 | 0.00 | 74 | 1011.7 |
| 20260505123336 | 63 | 256 | 2.0 | 2.0 | 0.00 | 0.00 | 0.00 | 73 | 1011.6 |
| 20260505122832 | 62 | 244 | 1.0 | 1.0 | 0.00 | 0.00 | 0.00 | 76 | 1011.4 |
| 20260505122529 | 61 | 244 | 1.0 | 2.0 | 0.00 | 0.00 | 0.00 | 77 | 1011.8 |
| 20260505122330 | 61 | 237 | 1.0 | 1.0 | 0.00 | 0.00 | 0.00 | 77 | 1011.6 |
| 20260505121826 | 60 | 245 | 1.0 | 1.0 | 0.00 | 0.00 | 0.00 | 79 | 1011.6 |
| 20260505121541 | 59 | 241 | 1.0 | 1.0 | 0.00 | 0.00 | 0.00 | 80 | 1012.0 |
| 20260505121323 | 59 | 247 | 1.0 | 2.0 | 0.00 | 0.00 | 0.00 | 80 | 1011.8 |
| 20260505120819 | 59 | 259 | 0.0 | 0.0 | 0.00 | 0.00 | 0.00 | 81 | 1011.9 |
| 20260505120529 | 58 | 245 | 1.0 | 3.0 | 0.00 | 0.00 | 0.00 | 82 | 1012.2 |
| 20260505120315 | 58 | 251 | 1.0 | 1.0 | 0.00 | 0.00 | 0.00 | 82 | 1011.9 |
| 20260505115814 | 57 | 250 | 1.0 | 1.0 | 0.00 | 0.00 | 0.00 | 83 | 1011.9 |
| 20260505115521 | 56 | 246 | 0.0 | 2.0 | 0.00 | 0.00 | 0.00 | 86 | 1012.0 |
| 20260505115312 | 56 | 264 | 0.0 | 0.0 | 0.00 | 0.00 | 0.00 | 86 | 1011.6 |
| 20260505114809 | 56 | 261 | 0.0 | 0.0 | 0.00 | 0.00 | 0.00 | 87 | 1011.7 |
| 20260505114529 | 55 | 0.0 | 0.0 | 0.00 | 0.00 | 0.00 | 88 | 1012.0 | |
| 20260505114305 | 55 | 259 | 0.0 | 0.0 | 0.00 | 0.00 | 0.00 | 88 | 1011.8 |
| 20260505113756 | 55 | 274 | 0.0 | 0.0 | 0.00 | 0.00 | 0.00 | 88 | 1011.5 |
| 20260505113521 | 54 | 247 | 1.0 | 2.0 | 0.00 | 0.00 | 0.00 | 89 | 1011.9 |
| 20260505113253 | 54 | 237 | 2.0 | 2.0 | 0.00 | 0.00 | 0.00 | 89 | 1011.7 |
| 20260505112748 | 54 | 258 | 1.0 | 1.0 | 0.00 | 0.00 | 0.00 | 89 | 1011.7 |
| 20260505112529 | 54 | 0.0 | 0.0 | 0.00 | 0.00 | 0.00 | 89 | 1011.7 | |
| 20260505112247 | 54 | 269 | 0.0 | 0.0 | 0.00 | 0.00 | 0.00 | 89 | 1011.4 |
| 20260505111747 | 54 | 283 | 0.0 | 1.0 | 0.00 | 0.00 | 0.00 | 89 | 1011.5 |
| 20260505111601 | 53 | 303 | 0.0 | 2.0 | 0.00 | 0.00 | 0.00 | 89 | 1011.9 |
| 20260505111243 | 53 | 285 | 0.0 | 0.0 | 0.00 | 0.00 | 0.00 | 89 | 1011.5 |
| 20260505110739 | 53 | 261 | 0.0 | 0.0 | 0.00 | 0.00 | 0.00 | 89 | 1012.0 |
| 20260505110549 | 52 | 248 | 0.0 | 3.0 | 0.00 | 0.00 | 0.00 | 90 | 1012.2 |
| 20260505110237 | 52 | 223 | 3.0 | 5.0 | 0.00 | 0.00 | 0.00 | 90 | 1012.1 |
| 20260505102212 | 48 | 264 | 0.0 | 0.0 | 0.00 | 0.00 | 0.00 | 93 | 1011.9 |
| 20260505101711 | 48 | 265 | 0.0 | 0.0 | 0.00 | 0.00 | 0.00 | 93 | 1011.8 |
| 20260505101521 | 48 | 0.0 | 0.0 | 0.00 | 0.00 | 0.00 | 93 | 1011.9 | |
| 20260505101206 | 48 | 260 | 0.0 | 0.0 | 0.00 | 0.00 | 0.00 | 93 | 1011.5 |
| 20260505100703 | 48 | 261 | 0.0 | 0.0 | 0.00 | 0.00 | 0.00 | 93 | 1011.4 |
| 20260505100529 | 48 | 0.0 | 0.0 | 0.00 | 0.00 | 0.00 | 93 | 1011.8 | |
| 20260505100200 | 48 | 257 | 0.0 | 0.0 | 0.00 | 0.00 | 0.00 | 93 | 1011.4 |
| 20260505095655 | 48 | 263 | 0.0 | 0.0 | 0.00 | 0.00 | 0.00 | 92 | 1011.4 |
| 20260505095541 | 48 | 0.0 | 0.0 | 0.00 | 0.00 | 0.00 | 92 | 1011.6 | |
| 20260505095153 | 48 | 262 | 0.0 | 0.0 | 0.00 | 0.00 | 0.00 | 92 | 1011.3 |
| 20260505094649 | 48 | 273 | 0.0 | 0.0 | 0.00 | 0.00 | 0.00 | 92 | 1011.3 |
| 20260505094529 | 48 | 285 | 0.0 | 1.0 | 0.00 | 0.00 | 0.00 | 92 | 1011.4 |
| 20260505094145 | 48 | 287 | 1.0 | 1.0 | 0.00 | 0.00 | 0.00 | 92 | 1011.2 |
| 20260505093642 | 48 | 263 | 0.0 | 0.0 | 0.00 | 0.00 | 0.00 | 92 | 1011.1 |
| 20260505093521 | 48 | 0.0 | 0.0 | 0.00 | 0.00 | 0.00 | 92 | 1011.3 | |
| 20260505093139 | 48 | 265 | 0.0 | 0.0 | 0.00 | 0.00 | 0.00 | 92 | 1010.9 |
| 20260505092636 | 48 | 263 | 0.0 | 0.0 | 0.00 | 0.00 | 0.00 | 92 | 1011.1 |
| 20260505092529 | 48 | 278 | 0.0 | 1.0 | 0.00 | 0.00 | 0.00 | 92 | 1011.2 |
| 20260505092135 | 48 | 268 | 0.0 | 0.0 | 0.00 | 0.00 | 0.00 | 92 | 1011.0 |
| 20260505091631 | 48 | 277 | 0.0 | 0.0 | 0.00 | 0.00 | 0.00 | 92 | 1010.8 |
| 20260505091521 | 48 | 253 | 0.0 | 1.0 | 0.00 | 0.00 | 0.00 | 92 | 1011.1 |
| 20260505091130 | 48 | 254 | 1.0 | 1.0 | 0.00 | 0.00 | 0.00 | 91 | 1010.9 |
| 20260505090627 | 48 | 266 | 0.0 | 0.0 | 0.00 | 0.00 | 0.00 | 91 | 1010.9 |
| 20260505090529 | 48 | 0.0 | 0.0 | 0.00 | 0.00 | 0.00 | 91 | 1011.3 | |
| 20260505090125 | 48 | 270 | 0.0 | 0.0 | 0.00 | 0.00 | 0.00 | 91 | 1010.9 |
| 20260505085622 | 48 | 264 | 0.0 | 0.0 | 0.00 | 0.00 | 0.00 | 91 | 1010.8 |
| 20260505085521 | 48 | 0.0 | 0.0 | 0.00 | 0.00 | 0.00 | 91 | 1011.1 | |
| 20260505085120 | 48 | 261 | 0.0 | 0.0 | 0.00 | 0.00 | 0.00 | 91 | 1010.8 |
| 20260505084618 | 48 | 263 | 0.0 | 0.0 | 0.00 | 0.00 | 0.00 | 91 | 1010.8 |
| 20260505084529 | 48 | 0.0 | 0.0 | 0.00 | 0.00 | 0.00 | 91 | 1011.1 | |
| 20260505084116 | 48 | 263 | 0.0 | 0.0 | 0.00 | 0.00 | 0.00 | 91 | 1010.8 |
| 20260505083613 | 48 | 261 | 0.0 | 0.0 | 0.00 | 0.00 | 0.00 | 90 | 1011.0 |
| 20260505083521 | 48 | 0.0 | 0.0 | 0.00 | 0.00 | 0.00 | 90 | 1011.1 | |
| 20260505083109 | 48 | 262 | 0.0 | 0.0 | 0.00 | 0.00 | 0.00 | 90 | 1010.8 |
| 20260505082605 | 48 | 266 | 0.0 | 0.0 | 0.00 | 0.00 | 0.00 | 90 | 1010.9 |
| 20260505082529 | 48 | 0.0 | 0.0 | 0.00 | 0.00 | 0.00 | 90 | 1011.1 | |
| 20260505082103 | 48 | 263 | 0.0 | 0.0 | 0.00 | 0.00 | 0.00 | 90 | 1010.9 |
| 20260505081559 | 49 | 282 | 0.0 | 0.0 | 0.00 | 0.00 | 0.00 | 90 | 1010.9 |
| 20260505081522 | 49 | 287 | 0.0 | 1.0 | 0.00 | 0.00 | 0.00 | 90 | 1011.1 |
| 20260505081056 | 49 | 265 | 0.0 | 0.0 | 0.00 | 0.00 | 0.00 | 90 | 1010.8 |
| 20260505080552 | 49 | 267 | 0.0 | 0.0 | 0.00 | 0.00 | 0.00 | 89 | 1011.0 |
| 20260505080529 | 49 | 0.0 | 0.0 | 0.00 | 0.00 | 0.00 | 89 | 1011.1 | |
| 20260505080049 | 49 | 261 | 0.0 | 0.0 | 0.00 | 0.00 | 0.00 | 89 | 1010.9 |
| 20260505075601 | 49 | 0.0 | 0.0 | 0.00 | 0.00 | 0.00 | 89 | 1011.2 | |
| 20260505075544 | 49 | 264 | 0.0 | 0.0 | 0.00 | 0.00 | 0.00 | 89 | 1011.0 |
| 20260505075042 | 49 | 266 | 0.0 | 0.0 | 0.00 | 0.00 | 0.00 | 89 | 1011.0 |
| 20260505074538 | 49 | 261 | 0.0 | 0.0 | 0.00 | 0.00 | 0.00 | 88 | 1010.9 |
| 20260505074529 | 49 | 0.0 | 0.0 | 0.00 | 0.00 | 0.00 | 88 | 1011.2 | |
| 20260505074036 | 49 | 261 | 0.0 | 0.0 | 0.00 | 0.00 | 0.00 | 88 | 1011.0 |
| 20260505073533 | 49 | 263 | 0.0 | 0.0 | 0.00 | 0.00 | 0.00 | 88 | 1011.0 |
| 20260505073521 | 49 | 0.0 | 0.0 | 0.00 | 0.00 | 0.00 | 88 | 1011.2 | |
| 20260505073032 | 49 | 269 | 0.0 | 0.0 | 0.00 | 0.00 | 0.00 | 88 | 1010.8 |
| 20260505072530 | 49 | 0.0 | 0.0 | 0.00 | 0.00 | 0.00 | 87 | 1011.2 | |
| 20260505072527 | 49 | 262 | 0.0 | 0.0 | 0.00 | 0.00 | 0.00 | 87 | 1010.8 |
| 20260505072023 | 50 | 265 | 0.0 | 0.0 | 0.00 | 0.00 | 0.00 | 87 | 1011.0 |
| 20260505071521 | 50 | 0.0 | 0.0 | 0.00 | 0.00 | 0.00 | 87 | 1011.0 | |
| 20260505071519 | 50 | 262 | 0.0 | 0.0 | 0.00 | 0.00 | 0.00 | 87 | 1010.7 |
| 20260505071018 | 50 | 265 | 0.0 | 0.0 | 0.00 | 0.00 | 0.00 | 87 | 1010.8 |
| 20260505070609 | 50 | 0.0 | 0.0 | 0.00 | 0.00 | 0.00 | 86 | 1011.1 | |
| 20260505070514 | 50 | 265 | 0.0 | 0.0 | 0.00 | 0.00 | 0.00 | 87 | 1010.9 |
| 20260505070010 | 50 | 264 | 0.0 | 0.0 | 0.00 | 0.00 | 0.00 | 86 | 1010.9 |
| 20260505065522 | 50 | 0.0 | 0.0 | 0.00 | 0.00 | 0.00 | 86 | 1011.1 | |
| 20260505065506 | 50 | 264 | 0.0 | 0.0 | 0.00 | 0.00 | 0.00 | 86 | 1010.8 |
| 20260505065003 | 50 | 282 | 0.0 | 0.0 | 0.00 | 0.00 | 0.00 | 86 | 1010.9 |
| 20260505064529 | 50 | 0.0 | 0.0 | 0.00 | 0.00 | 0.00 | 86 | 1010.9 | |
| 20260505064500 | 50 | 262 | 0.0 | 0.0 | 0.00 | 0.00 | 0.00 | 86 | 1010.6 |
| 20260505063958 | 50 | 265 | 0.0 | 0.0 | 0.00 | 0.00 | 0.00 | 85 | 1010.7 |
| 20260505063521 | 51 | 0.0 | 0.0 | 0.00 | 0.00 | 0.00 | 85 | 1011.1 | |
| 20260505063455 | 50 | 264 | 0.0 | 0.0 | 0.00 | 0.00 | 0.00 | 85 | 1011.0 |
| 20260505062951 | 51 | 264 | 0.0 | 0.0 | 0.00 | 0.00 | 0.00 | 84 | 1010.8 |
| 20260505062550 | 51 | 0.0 | 0.0 | 0.00 | 0.00 | 0.00 | 83 | 1011.3 | |
| 20260505062448 | 51 | 264 | 0.0 | 0.0 | 0.00 | 0.00 | 0.00 | 84 | 1011.0 |
| 20260505061945 | 51 | 264 | 0.0 | 0.0 | 0.00 | 0.00 | 0.00 | 83 | 1010.9 |
| 20260505061521 | 51 | 0.0 | 0.0 | 0.00 | 0.00 | 0.00 | 82 | 1011.3 | |
| 20260505061443 | 51 | 264 | 0.0 | 0.0 | 0.00 | 0.00 | 0.00 | 82 | 1011.0 |
| 20260505060940 | 51 | 263 | 0.0 | 0.0 | 0.00 | 0.00 | 0.00 | 82 | 1011.1 |
| 20260505060549 | 52 | 0.0 | 0.0 | 0.00 | 0.00 | 0.00 | 81 | 1011.3 | |
| 20260505060437 | 52 | 261 | 0.0 | 0.0 | 0.00 | 0.00 | 0.00 | 81 | 1010.9 |
| 20260505055933 | 52 | 261 | 0.0 | 0.0 | 0.00 | 0.00 | 0.00 | 80 | 1011.0 |
| 20260505055521 | 53 | 0.0 | 0.0 | 0.00 | 0.00 | 0.00 | 80 | 1011.3 | |
| 20260505055430 | 53 | 260 | 0.0 | 0.0 | 0.00 | 0.00 | 0.00 | 80 | 1010.9 |
| 20260505054926 | 53 | 262 | 0.0 | 0.0 | 0.00 | 0.00 | 0.00 | 79 | 1011.1 |
| 20260505054529 | 53 | 0.0 | 0.0 | 0.00 | 0.00 | 0.00 | 79 | 1011.3 | |
| 20260505054424 | 53 | 258 | 0.0 | 0.0 | 0.00 | 0.00 | 0.00 | 79 | 1010.9 |
| 20260505053922 | 53 | 258 | 0.0 | 0.0 | 0.00 | 0.00 | 0.00 | 79 | 1011.2 |
| 20260505053521 | 53 | 0.0 | 0.0 | 0.00 | 0.00 | 0.00 | 80 | 1011.4 | |
| 20260505053418 | 53 | 258 | 0.0 | 0.0 | 0.00 | 0.00 | 0.00 | 80 | 1011.1 |
| 20260505052915 | 53 | 260 | 0.0 | 0.0 | 0.00 | 0.00 | 0.00 | 80 | 1011.4 |
| 20260505052530 | 52 | 0.0 | 0.0 | 0.00 | 0.00 | 0.00 | 81 | 1011.5 | |
| 20260505052412 | 52 | 258 | 0.0 | 0.0 | 0.00 | 0.00 | 0.00 | 81 | 1011.3 |
| 20260505051910 | 52 | 259 | 0.0 | 0.0 | 0.00 | 0.00 | 0.00 | 81 | 1011.3 |
| 20260505051522 | 52 | 0.0 | 0.0 | 0.00 | 0.00 | 0.00 | 81 | 1011.6 | |
| 20260505051407 | 52 | 260 | 0.0 | 0.0 | 0.00 | 0.00 | 0.00 | 81 | 1011.4 |
| 20260505050905 | 52 | 265 | 0.0 | 0.0 | 0.00 | 0.00 | 0.00 | 80 | 1011.3 |
| 20260505050530 | 52 | 0.0 | 0.0 | 0.00 | 0.00 | 0.00 | 80 | 1011.6 | |
| 20260505050403 | 52 | 264 | 0.0 | 0.0 | 0.00 | 0.00 | 0.00 | 80 | 1011.3 |
| 20260505041522 | 54 | 0.0 | 0.0 | 0.00 | 0.00 | 0.00 | 74 | 1011.6 | |
| 20260505041330 | 54 | 263 | 0.0 | 0.0 | 0.00 | 0.00 | 0.00 | 74 | 1011.4 |
| 20260505040827 | 54 | 263 | 0.0 | 0.0 | 0.00 | 0.00 | 0.00 | 74 | 1011.4 |
| 20260505040530 | 54 | 0.0 | 0.0 | 0.00 | 0.00 | 0.00 | 73 | 1011.7 | |
| 20260505040325 | 54 | 268 | 0.0 | 0.0 | 0.00 | 0.00 | 0.00 | 73 | 1011.3 |
| 20260505035821 | 55 | 264 | 0.0 | 0.0 | 0.00 | 0.00 | 0.00 | 73 | 1011.4 |
| 20260505035542 | 55 | 0.0 | 0.0 | 0.00 | 0.00 | 0.00 | 72 | 1011.7 | |
| 20260505035317 | 55 | 281 | 0.0 | 0.0 | 0.00 | 0.00 | 0.00 | 72 | 1011.4 |
| 20260505034815 | 55 | 264 | 0.0 | 0.0 | 0.00 | 0.00 | 0.00 | 71 | 1011.5 |
| 20260505034550 | 56 | 0.0 | 0.0 | 0.00 | 0.00 | 0.00 | 70 | 1011.6 | |
| 20260505034311 | 56 | 260 | 0.0 | 0.0 | 0.00 | 0.00 | 0.00 | 70 | 1011.4 |
| 20260505033808 | 56 | 267 | 0.0 | 0.0 | 0.00 | 0.00 | 0.00 | 69 | 1011.4 |
| 20260505033522 | 56 | 0.0 | 0.0 | 0.00 | 0.00 | 0.00 | 68 | 1011.7 | |
| 20260505033305 | 57 | 259 | 0.0 | 0.0 | 0.00 | 0.00 | 0.00 | 68 | 1011.5 |
| 20260505032804 | 57 | 259 | 0.0 | 0.0 | 0.00 | 0.00 | 0.00 | 67 | 1011.5 |
| 20260505032530 | 57 | 275 | 0.0 | 1.0 | 0.00 | 0.00 | 0.00 | 66 | 1011.7 |
| 20260505032259 | 57 | 267 | 0.0 | 0.0 | 0.00 | 0.00 | 0.00 | 66 | 1011.5 |
| 20260505031756 | 58 | 272 | 0.0 | 1.0 | 0.00 | 0.00 | 0.00 | 65 | 1011.3 |
| 20260505031522 | 58 | 277 | 0.0 | 1.0 | 0.00 | 0.00 | 0.00 | 64 | 1011.8 |
| 20260505031253 | 58 | 264 | 0.0 | 0.0 | 0.00 | 0.00 | 0.00 | 64 | 1011.6 |
| 20260505030750 | 59 | 265 | 0.0 | 0.0 | 0.00 | 0.00 | 0.00 | 62 | 1011.4 |
| 20260505030530 | 59 | 0.0 | 0.0 | 0.00 | 0.00 | 0.00 | 61 | 1011.8 | |
| 20260505030246 | 59 | 268 | 0.0 | 0.0 | 0.00 | 0.00 | 0.00 | 61 | 1011.6 |
| 20260505025742 | 60 | 257 | 0.0 | 0.0 | 0.00 | 0.00 | 0.00 | 59 | 1011.4 |
| 20260505025522 | 60 | 0.0 | 0.0 | 0.00 | 0.00 | 0.00 | 58 | 1011.7 | |
| 20260505025240 | 60 | 263 | 0.0 | 0.0 | 0.00 | 0.00 | 0.00 | 58 | 1011.3 |
| 20260505024738 | 61 | 263 | 0.0 | 0.0 | 0.00 | 0.00 | 0.00 | 56 | 1011.4 |
| 20260505024530 | 61 | 254 | 0.0 | 1.0 | 0.00 | 0.00 | 0.00 | 55 | 1011.7 |
| 20260505024235 | 62 | 268 | 0.0 | 0.0 | 0.00 | 0.00 | 0.00 | 55 | 1011.6 |
| 20260505023732 | 62 | 256 | 0.0 | 0.0 | 0.00 | 0.00 | 0.00 | 54 | 1011.3 |
| 20260505023522 | 63 | 249 | 0.0 | 2.0 | 0.00 | 0.00 | 0.00 | 53 | 1011.7 |
| 20260505023230 | 63 | 258 | 0.0 | 0.0 | 0.00 | 0.00 | 0.00 | 53 | 1011.3 |
| 20260505022727 | 63 | 259 | 0.0 | 0.0 | 0.00 | 0.00 | 0.00 | 52 | 1011.6 |
| 20260505022530 | 63 | 245 | 1.0 | 2.0 | 0.00 | 0.00 | 0.00 | 52 | 1011.8 |
| 20260505022224 | 63 | 254 | 1.0 | 1.0 | 0.00 | 0.00 | 0.00 | 52 | 1011.4 |
| 20260505021720 | 63 | 243 | 1.0 | 1.0 | 0.00 | 0.00 | 0.00 | 52 | 1011.5 |
| 20260505021522 | 63 | 240 | 2.0 | 5.0 | 0.00 | 0.00 | 0.00 | 51 | 1011.9 |
| 20260505021217 | 63 | 247 | 1.0 | 2.0 | 0.00 | 0.00 | 0.00 | 50 | 1011.7 |
| 20260505020713 | 62 | 232 | 2.0 | 2.0 | 0.00 | 0.00 | 0.00 | 51 | 1011.5 |
| 20260505020530 | 63 | 255 | 0.0 | 1.0 | 0.00 | 0.00 | 0.00 | 49 | 1011.8 |
| 20260505020208 | 63 | 250 | 0.0 | 0.0 | 0.00 | 0.00 | 0.00 | 49 | 1011.5 |
| 20260505015706 | 62 | 258 | 0.0 | 0.0 | 0.00 | 0.00 | 0.00 | 48 | 1011.4 |
| 20260505015522 | 63 | 254 | 0.0 | 1.0 | 0.00 | 0.00 | 0.00 | 48 | 1011.8 |
| 20260505015203 | 63 | 252 | 0.0 | 0.0 | 0.00 | 0.00 | 0.00 | 48 | 1011.5 |
| 20260505014700 | 64 | 256 | 0.0 | 0.0 | 0.00 | 0.00 | 0.00 | 45 | 1011.2 |
| 20260505014530 | 65 | 0.0 | 0.0 | 0.00 | 0.00 | 0.00 | 44 | 1011.7 | |
| 20260505014157 | 65 | 253 | 0.0 | 0.0 | 0.00 | 0.00 | 0.00 | 43 | 1011.6 |
| 20260505013654 | 65 | 249 | 1.0 | 1.0 | 0.00 | 0.00 | 0.00 | 42 | 1011.4 |
| 20260505013522 | 66 | 249 | 0.0 | 2.0 | 0.00 | 0.00 | 0.00 | 42 | 1011.6 |
| 20260505013151 | 66 | 249 | 0.0 | 0.0 | 0.00 | 0.00 | 0.00 | 42 | 1011.2 |
| 20260505012649 | 66 | 260 | 1.0 | 1.0 | 0.00 | 0.00 | 0.00 | 41 | 1011.3 |
| 20260505012530 | 66 | 238 | 1.0 | 5.0 | 0.00 | 0.00 | 0.00 | 41 | 1011.4 |
| 20260505012146 | 66 | 241 | 1.0 | 1.0 | 0.00 | 0.00 | 0.00 | 42 | 1011.2 |
| 20260505011642 | 67 | 251 | 0.0 | 0.0 | 0.00 | 0.00 | 0.00 | 41 | 1011.0 |
| 20260505011522 | 67 | 247 | 1.0 | 5.0 | 0.00 | 0.00 | 0.00 | 41 | 1011.3 |
| 20260505011139 | 67 | 248 | 0.0 | 1.0 | 0.00 | 0.00 | 0.00 | 41 | 1011.0 |
| 20260505010639 | 67 | 229 | 1.0 | 1.0 | 0.00 | 0.00 | 0.00 | 40 | 1010.9 |
| 20260505010530 | 67 | 240 | 1.0 | 3.0 | 0.00 | 0.00 | 0.00 | 40 | 1011.0 |
| 20260505010137 | 67 | 237 | 2.0 | 2.0 | 0.00 | 0.00 | 0.00 | 40 | 1010.8 |
| 20260505005632 | 68 | 258 | 1.0 | 2.0 | 0.00 | 0.00 | 0.00 | 39 | 1010.7 |
| 20260505005522 | 67 | 232 | 2.0 | 6.0 | 0.00 | 0.00 | 0.00 | 39 | 1011.0 |
| 20260505005130 | 68 | 247 | 1.0 | 2.0 | 0.00 | 0.00 | 0.00 | 39 | 1010.9 |
| 20260505004627 | 68 | 256 | 0.0 | 0.0 | 0.00 | 0.00 | 0.00 | 39 | 1010.5 |
| 20260505004550 | 68 | 236 | 2.0 | 5.0 | 0.00 | 0.00 | 0.00 | 39 | 1010.8 |
| 20260505004123 | 68 | 243 | 2.0 | 2.0 | 0.00 | 0.00 | 0.00 | 39 | 1010.5 |
| 20260505003621 | 68 | 231 | 5.0 | 6.0 | 0.00 | 0.00 | 0.00 | 39 | 1010.4 |
| 20260505003522 | 68 | 244 | 2.0 | 6.0 | 0.00 | 0.00 | 0.00 | 39 | 1010.7 |
| 20260505003118 | 68 | 234 | 2.0 | 2.0 | 0.00 | 0.00 | 0.00 | 38 | 1010.5 |
| 20260505002614 | 68 | 243 | 2.0 | 2.0 | 0.00 | 0.00 | 0.00 | 39 | 1010.2 |
| 20260505002530 | 68 | 235 | 2.0 | 7.0 | 0.00 | 0.00 | 0.00 | 39 | 1010.5 |
| 20260505002113 | 68 | 259 | 0.0 | 1.0 | 0.00 | 0.00 | 0.00 | 39 | 1010.2 |
| 20260505001609 | 69 | 242 | 2.0 | 2.0 | 0.00 | 0.00 | 0.00 | 38 | 1010.1 |
| 20260505001522 | 69 | 236 | 2.0 | 6.0 | 0.00 | 0.00 | 0.00 | 37 | 1010.4 |
| 20260505001107 | 69 | 220 | 4.0 | 5.0 | 0.00 | 0.00 | 0.00 | 37 | 1010.3 |
| 20260505000604 | 69 | 225 | 2.0 | 3.0 | 0.00 | 0.00 | 0.00 | 37 | 1010.0 |
| 20260505000530 | 70 | 230 | 3.0 | 9.0 | 0.00 | 0.00 | 0.00 | 36 | 1010.1 |
| 20260504235558 | 69 | 224 | 5.0 | 7.0 | 0.00 | 0.00 | 0.00 | 36 | 1009.7 |
| 20260504235522 | 69 | 244 | 2.0 | 5.0 | 0.00 | 0.00 | 0.00 | 37 | 1010.0 |
| 20260504235054 | 70 | 255 | 1.0 | 2.0 | 0.00 | 0.00 | 0.00 | 37 | 1009.8 |
| 20260504234551 | 70 | 256 | 3.0 | 5.0 | 0.00 | 0.00 | 0.00 | 36 | 1009.6 |
| 20260504234049 | 70 | 254 | 0.0 | 0.0 | 0.00 | 0.00 | 0.00 | 36 | 1009.5 |
| 20260504233543 | 71 | 246 | 5.0 | 7.0 | 0.00 | 0.00 | 0.00 | 35 | 1009.5 |
| 20260504233523 | 71 | 239 | 6.0 | 16.0 | 0.00 | 0.00 | 0.00 | 35 | 1009.8 |
| 20260504233041 | 71 | 248 | 7.0 | 11.0 | 0.00 | 0.00 | 0.00 | 35 | 1009.5 |
| 20260504232538 | 71 | 210 | 4.0 | 5.0 | 0.00 | 0.00 | 0.00 | 35 | 1009.3 |
| 20260504232531 | 71 | 244 | 3.0 | 6.0 | 0.00 | 0.00 | 0.00 | 34 | 1009.6 |
| 20260504232036 | 71 | 263 | 4.0 | 5.0 | 0.00 | 0.00 | 0.00 | 34 | 1009.3 |
| 20260504231532 | 72 | 233 | 4.0 | 5.0 | 0.00 | 0.00 | 0.00 | 34 | 1009.2 |
| 20260504231522 | 72 | 238 | 4.0 | 10.0 | 0.00 | 0.00 | 0.00 | 34 | 1009.5 |
| 20260504231028 | 72 | 246 | 3.0 | 3.0 | 0.00 | 0.00 | 0.00 | 34 | 1009.1 |
| 20260504230530 | 72 | 246 | 3.0 | 6.0 | 0.00 | 0.00 | 0.00 | 33 | 1009.4 |
| 20260504230525 | 72 | 236 | 3.0 | 3.0 | 0.00 | 0.00 | 0.00 | 33 | 1009.3 |
| 20260504230024 | 72 | 244 | 3.0 | 5.0 | 0.00 | 0.00 | 0.00 | 33 | 1009.2 |
| 20260504225522 | 72 | 247 | 4.0 | 9.0 | 0.00 | 0.00 | 0.00 | 33 | 1009.5 |
| 20260504225520 | 72 | 243 | 5.0 | 7.0 | 0.00 | 0.00 | 0.00 | 33 | 1009.3 |
| 20260504225017 | 72 | 255 | 1.0 | 1.0 | 0.00 | 0.00 | 0.00 | 34 | 1009.1 |
| 20260504224530 | 73 | 251 | 3.0 | 6.0 | 0.00 | 0.00 | 0.00 | 32 | 1009.4 |
| 20260504224514 | 73 | 239 | 3.0 | 3.0 | 0.00 | 0.00 | 0.00 | 32 | 1009.1 |
| 20260504224011 | 73 | 243 | 3.0 | 3.0 | 0.00 | 0.00 | 0.00 | 32 | 1009.3 |
| 20260504223522 | 73 | 279 | 4.0 | 9.0 | 0.00 | 0.00 | 0.00 | 32 | 1009.4 |
| 20260504223508 | 73 | 310 | 5.0 | 7.0 | 0.00 | 0.00 | 0.00 | 32 | 1009.1 |
| 20260504223004 | 72 | 316 | 3.0 | 3.0 | 0.00 | 0.00 | 0.00 | 32 | 1009.0 |
| 20260504222531 | 73 | 236 | 5.0 | 11.0 | 0.00 | 0.00 | 0.00 | 32 | 1009.4 |
| 20260504222501 | 73 | 243 | 10.0 | 13.0 | 0.00 | 0.00 | 0.00 | 32 | 1009.2 |
| 20260504221958 | 73 | 212 | 5.0 | 9.0 | 0.00 | 0.00 | 0.00 | 32 | 1009.4 |
| 20260504221522 | 73 | 248 | 4.0 | 8.0 | 0.00 | 0.00 | 0.00 | 32 | 1009.5 |
| 20260504221455 | 73 | 260 | 2.0 | 2.0 | 0.00 | 0.00 | 0.00 | 32 | 1009.3 |
| 20260504220952 | 73 | 238 | 5.0 | 5.0 | 0.00 | 0.00 | 0.00 | 32 | 1009.2 |
| 20260504220530 | 73 | 238 | 5.0 | 10.0 | 0.00 | 0.00 | 0.00 | 32 | 1009.6 |
| 20260504220448 | 73 | 233 | 10.0 | 11.0 | 0.00 | 0.00 | 0.00 | 31 | 1009.3 |
| 20260504215945 | 73 | 252 | 3.0 | 3.0 | 0.00 | 0.00 | 0.00 | 31 | 1009.4 |
| 20260504215522 | 73 | 246 | 5.0 | 13.0 | 0.00 | 0.00 | 0.00 | 31 | 1009.7 |
| 20260504215442 | 73 | 241 | 3.0 | 5.0 | 0.00 | 0.00 | 0.00 | 32 | 1009.5 |
| 20260504214939 | 73 | 217 | 8.0 | 9.0 | 0.00 | 0.00 | 0.00 | 31 | 1009.5 |
| 20260504214531 | 74 | 265 | 3.0 | 8.0 | 0.00 | 0.00 | 0.00 | 31 | 1009.8 |
| 20260504214435 | 74 | 262 | 4.0 | 7.0 | 0.00 | 0.00 | 0.00 | 31 | 1009.5 |
| 20260504213932 | 74 | 247 | 8.0 | 9.0 | 0.00 | 0.00 | 0.00 | 30 | 1009.5 |
| 20260504213522 | 73 | 259 | 4.0 | 10.0 | 0.00 | 0.00 | 0.00 | 31 | 1009.8 |
| 20260504213428 | 74 | 257 | 3.0 | 5.0 | 0.00 | 0.00 | 0.00 | 29 | 1009.7 |
| 20260504212926 | 73 | 236 | 3.0 | 5.0 | 0.00 | 0.00 | 0.00 | 31 | 1009.7 |
| 20260504212530 | 73 | 237 | 5.0 | 13.0 | 0.00 | 0.00 | 0.00 | 31 | 1009.9 |
| 20260504212421 | 74 | 218 | 7.0 | 9.0 | 0.00 | 0.00 | 0.00 | 30 | 1009.6 |
| 20260504211919 | 74 | 239 | 5.0 | 6.0 | 0.00 | 0.00 | 0.00 | 31 | 1009.7 |
| 20260504211522 | 73 | 254 | 4.0 | 9.0 | 0.00 | 0.00 | 0.00 | 31 | 1010.0 |
| 20260504211415 | 73 | 314 | 4.0 | 6.0 | 0.00 | 0.00 | 0.00 | 30 | 1009.7 |
| 20260504210912 | 72 | 232 | 5.0 | 8.0 | 0.00 | 0.00 | 0.00 | 32 | 1009.6 |